TimeBST,TemperatureF,Dew PointF,Humidity,Sea Level PressureIn,VisibilityMPH,Wind Direction,Wind SpeedMPH,Gust SpeedMPH,PrecipitationIn,Events,Conditions,WindDirDegrees,DateUTC
12:20 AM,62.6,57.2,82,29.92,2.5,Variable,3.5,-,N/A,,Haze,0,2013-09-25 23:20:00
12:50 AM,62,56,76,29.93,3,NE,6.9,,,,Light Haze,40,2013-09-25 23:50:00
12:50 AM,62.6,57.2,82,29.92,2.5,NE,5.8,-,N/A,,Haze,40,2013-09-25 23:50:00
1:20 AM,62.6,57.2,82,29.92,-9999.0,NE,5.8,-,N/A,,Haze,50,2013-09-26 00:20:00
1:50 AM,60.8,57.2,88,29.95,-9999.0,NE,5.8,-,N/A,,Haze,50,2013-09-26 00:50:00
2:20 AM,60.8,57.2,88,29.95,1.8,NE,5.8,-,N/A,,Haze,50,2013-09-26 01:20:00
2:50 AM,59.0,55.4,88,29.95,1.6,NE,4.6,-,N/A,,Haze,50,2013-09-26 01:50:00
3:20 AM,59.0,55.4,88,29.95,1.6,NE,5.8,-,N/A,,Haze,50,2013-09-26 02:20:00
3:50 AM,58,54,83,29.96,3,NNE,5.8,,,,Light Haze,30,2013-09-26 02:50:00
3:50 AM,59.0,55.4,88,29.95,1.9,NE,6.9,-,N/A,,Haze,40,2013-09-26 02:50:00
4:20 AM,59.0,53.6,82,29.95,-9999.0,ENE,6.9,-,N/A,,Haze,70,2013-09-26 03:20:00
4:50 AM,59.0,53.6,82,29.98,-9999.0,ENE,5.8,-,N/A,,Haze,70,2013-09-26 03:50:00
5:20 AM,59.0,55.4,88,29.98,-9999.0,ENE,4.6,-,N/A,,Haze,70,2013-09-26 04:20:00
5:50 AM,59.0,55.4,88,29.98,2.5,ENE,4.6,-,N/A,,Haze,60,2013-09-26 04:50:00
6:20 AM,59.0,55.4,88,29.98,-9999.0,ENE,4.6,-,N/A,,Haze,60,2013-09-26 05:20:00
6:50 AM,59,55,81,30.00,5,ENE,5.8,,,,Light Haze,60,2013-09-26 05:50:00
6:50 AM,59.0,55.4,88,29.98,3.7,ENE,6.9,-,N/A,,Mostly Cloudy,60,2013-09-26 05:50:00
7:20 AM,59.0,53.6,82,30.01,6.2,NE,8.1,-,N/A,,Mostly Cloudy,50,2013-09-26 06:20:00
7:50 AM,57.2,53.6,88,30.01,6.2,NE,8.1,-,N/A,,Mostly Cloudy,50,2013-09-26 06:50:00
8:20 AM,57.2,53.6,88,30.01,6.2,ENE,8.1,-,N/A,,Mostly Cloudy,60,2013-09-26 07:20:00
8:50 AM,57.2,53.6,88,30.04,6.2,ENE,8.1,-,N/A,,Mostly Cloudy,60,2013-09-26 07:50:00
9:20 AM,59.0,51.8,77,30.04,6.2,ENE,11.5,-,N/A,,Mostly Cloudy,60,2013-09-26 08:20:00
9:50 AM,57,51,73,30.05,31,ENE,9.2,,,,Overcast,60,2013-09-26 08:50:00
9:50 AM,57.2,51.8,82,30.04,6.2,ENE,10.4,-,N/A,,Mostly Cloudy,70,2013-09-26 08:50:00
10:20 AM,60.8,50.0,68,30.06,6.2,ENE,8.1,-,N/A,,Scattered Clouds,70,2013-09-26 09:20:00
10:50 AM,60.8,50.0,68,30.06,6.2,East,10.4,-,N/A,,Scattered Clouds,80,2013-09-26 09:50:00
11:20 AM,60.8,50.0,68,30.06,6.2,East,9.2,-,N/A,,Partly Cloudy,80,2013-09-26 10:20:00
11:50 AM,60.8,50.0,68,30.06,6.2,ENE,10.4,-,N/A,,Partly Cloudy,60,2013-09-26 10:50:00
12:20 PM,60.8,48.2,63,30.06,6.2,East,9.2,-,N/A,,Partly Cloudy,90,2013-09-26 11:20:00
12:50 PM,63,47,46,30.06,28,ENE,8.1,,,,,70,2013-09-26 11:50:00
12:50 PM,62.6,50.0,63,30.06,6.2,ENE,6.9,-,N/A,,Partly Cloudy,60,2013-09-26 11:50:00
1:20 PM,64.4,48.2,56,30.06,6.2,ESE,8.1,-,N/A,,Partly Cloudy,110,2013-09-26 12:20:00
1:50 PM,66.2,48.2,52,30.04,6.2,East,9.2,-,N/A,,Partly Cloudy,100,2013-09-26 12:50:00
2:20 PM,66.2,48.2,52,30.04,-9999.0,ESE,10.4,-,N/A,,Clear,110,2013-09-26 13:20:00
2:50 PM,68.0,48.2,49,30.04,-9999.0,East,10.4,-,N/A,,Clear,90,2013-09-26 13:50:00
3:20 PM,66.2,50.0,56,30.04,6.2,East,11.5,-,N/A,,Partly Cloudy,80,2013-09-26 14:20:00
3:50 PM,66,49,43,30.05,31,East,9.2,,,,,80,2013-09-26 14:50:00
3:50 PM,66.2,48.2,52,30.04,6.2,East,9.2,-,N/A,,Partly Cloudy,80,2013-09-26 14:50:00
4:20 PM,66.2,50.0,56,30.04,-9999.0,East,11.5,-,N/A,,Clear,90,2013-09-26 15:20:00
4:50 PM,64.4,50.0,59,30.04,-9999.0,East,10.4,-,N/A,,Clear,90,2013-09-26 15:50:00
5:20 PM,64.4,50.0,59,30.04,-9999.0,East,10.4,-,N/A,,Clear,90,2013-09-26 16:20:00
5:50 PM,62.6,50.0,63,30.04,-9999.0,East,11.5,-,N/A,,Clear,100,2013-09-26 16:50:00
6:20 PM,62.6,50.0,63,30.04,-9999.0,ESE,10.4,-,N/A,,Clear,110,2013-09-26 17:20:00
6:50 PM,61,50,59,30.04,22,ESE,10.4,,,,,120,2013-09-26 17:50:00
6:50 PM,60.8,50.0,68,30.04,-9999.0,ESE,9.2,-,N/A,,Clear,120,2013-09-26 17:50:00
7:20 PM,59.0,50.0,72,30.04,-9999.0,ESE,10.4,-,N/A,,Clear,110,2013-09-26 18:20:00
7:50 PM,59.0,50.0,72,30.04,-9999.0,East,10.4,-,N/A,,Clear,100,2013-09-26 18:50:00
8:20 PM,59.0,50.0,72,30.06,-9999.0,East,8.1,-,N/A,,Clear,100,2013-09-26 19:20:00
8:50 PM,59.0,50.0,72,30.06,-9999.0,East,8.1,-,N/A,,Clear,90,2013-09-26 19:50:00
9:20 PM,57.2,50.0,77,30.06,-9999.0,East,8.1,-,N/A,,Clear,90,2013-09-26 20:20:00
9:50 PM,57,51,74,30.06,19,East,6.9,,,,,90,2013-09-26 20:50:00
9:50 PM,57.2,51.8,82,30.06,-9999.0,East,8.1,-,N/A,,Clear,90,2013-09-26 20:50:00
10:20 PM,55.4,50.0,82,30.06,-9999.0,East,5.8,-,N/A,,Clear,100,2013-09-26 21:20:00
10:50 PM,55.4,51.8,88,30.06,-9999.0,East,6.9,-,N/A,,Clear,90,2013-09-26 21:50:00
11:20 PM,55.4,51.8,88,30.06,-9999.0,East,9.2,-,N/A,,Clear,90,2013-09-26 22:20:00
11:50 PM,55.4,51.8,88,30.06,-9999.0,East,4.6,-,N/A,,Clear,80,2013-09-26 22:50:00